Home > Time Zones > World Clock > Weather > Cuba > Havana > Past weeks

Flag for Cuba Weather past 2 weeks in Havana, Cuba

Now
73 °F

Passing clouds.


Feels Like: 75 °F
Forecast: 77 / 87 °F
Wind: 7 mph from East

Location: Aeropuerto Jose Marti - Rancho-Boyeros - Habana

Current Time: May 29, 2015 at 11:40:42 PM

Latest Report: May 29, 2015 at 10:55 PM


Visibility: 6 mi

Pressure: 30.04 "Hg

Humidity: 74%

Dew point: 64 °F

Location of HavanaLocation

Historic Weather in Havana — Graph

°F

Havana temperature yesterday

Maximum temperature yesterday: 86 °F (at 12:55 PM)
Minimum temperature yesterday: 68 °F (at 3:55 AM)
Average temperature yesterday: 78 °F

Past Weeks' High & Low Weather Summary

 TemperatureHumidityPressure
High93 °F (May 24, 1:55 PM)89% (May 15, 1:55 AM)30.15 "Hg (May 15, 1:55 AM)
Low66 °F (May 20, 6:55 AM)34% (May 16, 2:55 PM)29.98 "Hg (May 20, 4:55 AM)
Average79 °F69%30.07 "Hg
* Reported May 14 9:55 PM — May 29 9:55 PM, Havana, Weather by CustomWeather, © 2015

Note: Actual official high and low records may vary slightly from our data, if they occured in-between our weather recording intervals... More about our weather records

Advertising

Havana weather history for previous 24 hours

 ConditionsComfort  
Time TempWeatherWind HumidityBarometerVisibility
9:55 PM
Fri, May 29
75 °FPassing clouds.7 mph69%30.04 "Hg6 mi
8:55 PM77 °FPartly sunny.9 mph61%30.01 "Hg6 mi
7:55 PM79 °FPartly sunny.9 mph58%30.01 "Hg6 mi
6:55 PM81 °FPartly sunny.13 mph54%30.01 "Hg6 mi
5:55 PM82 °FPartly sunny.14 mph48%29.98 "Hg6 mi
4:55 PM86 °FPartly sunny.16 mph43%29.98 "Hg6 mi
3:55 PM88 °FScattered clouds.15 mph43%29.98 "Hg6 mi
2:55 PM88 °FScattered clouds.6 mph43%29.98 "Hg6 mi
1:55 PM90 °FPartly sunny.9 mph41%30.01 "Hg6 mi
12:55 PM86 °FScattered clouds.7 mph46%30.04 "Hg6 mi
11:55 AM84 °FScattered clouds.12 mph51%30.04 "Hg6 mi
10:55 AM84 °FScattered clouds.13 mph51%30.04 "Hg6 mi
9:55 AM81 °FPassing clouds.13 mph58%30.04 "Hg6 mi
8:55 AM79 °FPassing clouds.9 mph61%30.04 "Hg6 mi
7:55 AM73 °FPassing clouds.7 mph78%30.04 "Hg6 mi
6:55 AM70 °FPassing clouds.5 mph83%30.01 "Hg6 mi
5:55 AM72 °FPassing clouds.1 mph83%30.01 "HgN/A
4:55 AM73 °FPassing clouds.3 mph78%30.01 "HgN/A
3:55 AM72 °FPassing clouds.3 mph78%30.01 "HgN/A
2:55 AM72 °FClear.2 mph78%30.01 "Hg10 mi
1:55 AM73 °FClear.5 mph78%30.01 "Hg10 mi
12:55 AM72 °FClear.5 mph78%30.04 "Hg10 mi
11:55 PM
Thu, May 28
73 °FClear.7 mph78%30.04 "Hg10 mi
Weather by CustomWeather, © 2015

See weather overviewHow to use our weather pages